ハーゲンローザー彗星

175P/Hergenrother (2006)

English version
Home page
Updated on September 21, 2007

---------------------------------------------------------------------

・ プロフィール

符号 175P/2006 A3
検出日 2006年1月6日
検出光度 21.4等
検出者 E. J. Christensen (Mt. Lemmon Survey)

・ 軌道要素

Epoch 2006 Nov. 1.0 TT = JDT 2454040.5
T 2006 Nov. 6.68276 TT                                  MPC
q   2.0882415            (2000.0)            P               Q
n   0.14887974     Peri.   51.29125     -0.99602104     -0.02687593
a   3.5257024      Node   127.00619     -0.00332155     -0.94158449
e   0.4077091      Incl.    6.10793     +0.08905649     -0.33570274
P   6.62
>From 195 observations 2000 Jan. 4-2006 Jan. 27, mean residual 0".82.

・ 星図

・ 光度変化

        m1 = 13.5 + 5 logΔ + 10.0 log r

---------------------------------------------------------------------

軌道要素はM.P.E.C. 2006-B68に掲載されたものです。
星図は StellaNavigator Ver.2.0 for Windows (アストロアーツ 編著 / アスキー出版局刊) で作成したものです。
光度グラフはComet for Windowsで作成したものです。

---------------------------------------------------------------------

Copyright(C) Seiichi Yoshida (comet@aerith.net). All rights reserved.